Location: Seattle
(47.6064°N, 122.3308°W)
Time: 09:01:15
(UTC-07:00)

STRAND 1 - Pass Details

Date: 04 April 2023
Orbit: 767 x 779 km, 98.4° (Epoch: 02 June)

Event Time Altitude Azimuth Distance (km) Brightness Sun altitude
Rises 21:30:40 0° 2° (N) 3,251 ? -17.7°
Reaches altitude 10° 21:33:30 10° 347° (NNW) 2,319 ? -18.1°
Maximum altitude 21:37:10 20° 301° (WNW) 1,704 ? -18.6°
Drops below altitude 10° 21:40:50 10° 254° (WSW) 2,308 ? -19.2°
Sets 21:43:39 0° 239° (WSW) 3,231 ? -19.6°
